Stevens Point, WI

1:51 PM CST on December 16, 2017 (GMT -0600)
Stevens Point Municipal

Weather History for KSTE - April, 2013

Change the Weather History Date:

Sunday, April 7, 2013

  Actual Average Record
Temperature  
Mean Temperature 36 °F -  
Max Temperature 42 °F 51 °F 85 °F (1991)
Min Temperature 31 °F 29 °F 7 °F (1982)
Degree Days  
Heating Degree Days 29    
Moisture  
Dew Point 29 °F    
Average Humidity 79    
Maximum Humidity 94    
Minimum Humidity 63    
Precipitation  
Precipitation 0.03 in - - ()
Sea Level Pressure  
Sea Level Pressure 29.84 in    
Wind  
Wind Speed 7 mph (West)    
Max Wind Speed 13 mph    
Max Gust Speed 21 mph    
Visibility 10 miles    
Events      
Averages and records for this station are not official NWS values.
T = Trace of Precipitation, MM = Missing Value Source: NWS Daily Summary

Daily Weather History Graph

Daily Weather History Graph

Search for Another Location

Airport or City:

Trip Planner

Search our weather history database for the weather conditions in past years. The results will help you decide how hot, cold, wet, or windy it might be!

Date:

Astronomy

Apr. 07, 2013 Rise Set
Actual Time 6:27 AM CDT 7:33 PM CDT
Civil Twilight 5:57 AM CDT 8:03 PM CDT
Nautical Twilight 5:22 AM CDT 8:38 PM CDT
Astronomical Twilight 4:44 AM CDT 9:16 PM CDT
Moon 4:51 AM CDT (4/7) 5:00 PM CDT (4/7)
Length of Visible Light 14h 05m
Length of Day
13h 05m
Waning Crescent, 8% of the Moon is Illuminated
Apr 7
Waning Crescent
Apr 10
New
Apr 18
First Quarter
Apr 25
Full
May 2
Last Quarter

Hourly Weather History & Observations

Time (CDT) Temp. Windchill Dew Point Humidity Pressure Visibility Wind Dir Wind Speed Gust Speed Precip Events Conditions
12:15 AM 36.5 °F 29.2 °F 34.9 °F 94% 29.56 in 7.0 mi WNW 10.4 mph 17.3 mph N/A   Overcast
12:35 AM 36.0 °F 29.6 °F 34.0 °F 93% 29.57 in 7.0 mi WNW 8.1 mph - N/A   Overcast
12:55 AM 35.6 °F 28.6 °F 33.1 °F 91% 29.59 in 10.0 mi West 9.2 mph 19.6 mph N/A   Overcast
1:15 AM 35.1 °F 27.4 °F 32.9 °F 92% 29.61 in 10.0 mi WNW 10.4 mph - N/A   Overcast
1:35 AM 34.7 °F 26.4 °F 32.0 °F 90% 29.62 in 10.0 mi West 11.5 mph 17.3 mph N/A   Overcast
1:55 AM 34.2 °F 25.2 °F 31.5 °F 90% 29.63 in 10.0 mi WNW 12.7 mph 17.3 mph N/A   Overcast
2:15 AM 33.8 °F 25.3 °F 30.9 °F 89% 29.63 in 10.0 mi WNW 11.5 mph 19.6 mph N/A   Overcast
2:35 AM 33.4 °F 25.4 °F 30.0 °F 87% 29.64 in 10.0 mi WNW 10.4 mph 18.4 mph N/A   Overcast
2:55 AM 33.1 °F 24.9 °F 29.7 °F 87% 29.65 in 10.0 mi WNW 10.4 mph - N/A   Overcast
3:15 AM 32.9 °F 24.7 °F 29.3 °F 87% 29.66 in 10.0 mi WNW 10.4 mph 20.7 mph N/A   Overcast
3:35 AM 32.9 °F 27.5 °F 29.1 °F 86% 29.67 in 10.0 mi WNW 5.8 mph - N/A   Overcast
3:55 AM 32.5 °F 23.7 °F 28.2 °F 84% 29.68 in 10.0 mi NW 11.5 mph 19.6 mph N/A   Overcast
4:15 AM 32.5 °F 26.2 °F 28.4 °F 85% 29.69 in 10.0 mi WNW 6.9 mph - N/A   Overcast
4:35 AM 32.2 °F 26.7 °F 28.6 °F 87% 29.70 in 10.0 mi WNW 5.8 mph - N/A   Overcast
4:55 AM 32.2 °F 25.8 °F 28.0 °F 85% 29.71 in 10.0 mi WNW 6.9 mph - N/A   Overcast
5:15 AM 32.2 °F 24.4 °F 27.5 °F 83% 29.73 in 10.0 mi WNW 9.2 mph - N/A   Overcast
5:35 AM 32.2 °F 26.7 °F 27.1 °F 82% 29.74 in 10.0 mi WNW 5.8 mph - N/A   Overcast
5:55 AM 32.2 °F 26.7 °F 27.3 °F 82% 29.75 in 10.0 mi WNW 5.8 mph - N/A   Overcast
6:15 AM 32.2 °F 26.7 °F 27.5 °F 83% 29.76 in 10.0 mi WNW 5.8 mph - N/A   Overcast
6:35 AM 32.4 °F 26.0 °F 27.5 °F 82% 29.78 in 10.0 mi WNW 6.9 mph - N/A   Overcast
6:55 AM 32.4 °F 26.9 °F 27.9 °F 83% 29.78 in 10.0 mi NW 5.8 mph - N/A   Overcast
7:15 AM 32.5 °F 29.3 °F 27.5 °F 82% 29.80 in 10.0 mi West 3.5 mph - N/A   Overcast
7:35 AM 32.9 °F 27.5 °F 27.5 °F 81% 29.82 in 10.0 mi West 5.8 mph - N/A   Overcast
7:55 AM 32.9 °F 28.5 °F 28.0 °F 82% 29.83 in 10.0 mi WNW 4.6 mph - N/A   Overcast
8:15 AM 33.1 °F 27.7 °F 28.2 °F 82% 29.83 in 10.0 mi WNW 5.8 mph - N/A   Overcast
8:35 AM 33.4 °F 27.3 °F 28.2 °F 81% 29.84 in 10.0 mi WNW 6.9 mph - N/A   Overcast
8:55 AM 33.8 °F 28.6 °F 28.2 °F 80% 29.85 in 10.0 mi WNW 5.8 mph - N/A   Overcast
9:15 AM 33.8 °F 29.6 °F 28.4 °F 81% 29.86 in 10.0 mi NW 4.6 mph - N/A   Overcast
9:35 AM 34.0 °F 26.6 °F 28.2 °F 79% 29.86 in 10.0 mi NW 9.2 mph - N/A   Overcast
9:55 AM 34.3 °F 29.2 °F 28.0 °F 78% 29.87 in 10.0 mi WNW 5.8 mph - N/A   Overcast
10:15 AM 34.7 °F 27.5 °F 28.0 °F 77% 29.88 in 10.0 mi NW 9.2 mph - N/A   Overcast
10:35 AM 34.7 °F 29.6 °F 28.0 °F 77% 29.89 in 10.0 mi NW 5.8 mph - N/A   Overcast
10:55 AM 35.2 °F 32.4 °F 28.4 °F 76% 29.91 in 10.0 mi NW 3.5 mph - N/A   Overcast
11:15 AM 35.6 °F 31.7 °F 28.2 °F 75% 29.91 in 10.0 mi WNW 4.6 mph - N/A   Overcast
11:35 AM 35.6 °F 31.7 °F 28.2 °F 75% 29.93 in 10.0 mi WNW 4.6 mph - N/A   Overcast
11:55 AM 36.0 °F 31.1 °F 28.4 °F 74% 29.93 in 10.0 mi West 5.8 mph - N/A   Overcast
12:15 PM 35.6 °F 29.2 °F 28.4 °F 75% 29.93 in 10.0 mi WSW 8.1 mph - N/A   Overcast
12:35 PM 36.0 °F 30.3 °F 28.2 °F 73% 29.94 in 10.0 mi West 6.9 mph - N/A   Overcast
12:55 PM 36.3 °F 30.8 °F 28.4 °F 73% 29.94 in 10.0 mi West 6.9 mph - N/A   Overcast
1:15 PM 36.0 °F 29.6 °F 28.9 °F 76% 29.95 in 10.0 mi WSW 8.1 mph - N/A   Overcast
1:35 PM 36.3 °F 30.8 °F 28.8 °F 74% 29.95 in 10.0 mi West 6.9 mph - N/A   Overcast
1:55 PM 36.9 °F 32.2 °F 28.4 °F 71% 29.94 in 10.0 mi WNW 5.8 mph - N/A   Overcast
2:15 PM 38.3 °F 33.2 °F 29.5 °F 71% 29.94 in 10.0 mi SW 6.9 mph - N/A   Overcast
2:35 PM 38.1 °F 32.3 °F 29.1 °F 70% 29.94 in 10.0 mi WSW 8.1 mph - N/A   Overcast
2:55 PM 37.6 °F 34.0 °F 28.8 °F 70% 29.93 in 10.0 mi SW 4.6 mph - N/A   Overcast
3:15 PM 38.3 °F 32.5 °F 28.9 °F 69% 29.93 in 10.0 mi West 8.1 mph - N/A   Mostly Cloudy
3:35 PM 39.4 °F 37.2 °F 29.7 °F 68% 29.91 in 10.0 mi West 3.5 mph - N/A   Scattered Clouds
3:55 PM 39.2 °F 37.0 °F 29.1 °F 67% 29.92 in 10.0 mi WSW 3.5 mph - N/A   Clear
4:15 PM 40.3 °F 36.3 °F 29.5 °F 65% 29.93 in 10.0 mi West 5.8 mph - N/A   Clear
4:35 PM 40.6 °F 37.5 °F 29.8 °F 65% 29.91 in 10.0 mi South 4.6 mph - N/A   Clear
4:55 PM 40.5 °F 38.4 °F 29.3 °F 64% 29.91 in 10.0 mi WSW 3.5 mph - N/A   Clear
5:15 PM 41.7 °F 39.8 °F 29.8 °F 63% 29.91 in 10.0 mi SSE 3.5 mph - N/A   Clear
5:35 PM 41.5 °F 37.1 °F 30.6 °F 65% 29.91 in 10.0 mi SE 6.9 mph - N/A   Clear
5:55 PM 41.0 °F 36.4 °F 30.4 °F 66% 29.91 in 10.0 mi SSE 6.9 mph - N/A   Clear
6:15 PM 40.6 °F 37.5 °F 30.4 °F 67% 29.92 in 10.0 mi South 4.6 mph - N/A   Clear
6:35 PM 40.1 °F 36.1 °F 30.2 °F 68% 29.93 in 10.0 mi SSE 5.8 mph - N/A   Clear
6:55 PM 39.4 °F - 29.8 °F 69% 29.93 in 10.0 mi Calm Calm - N/A   Clear
7:15 PM 38.3 °F - 29.8 °F 72% 29.93 in 10.0 mi Calm Calm - N/A   Clear
7:35 PM 36.0 °F 32.1 °F 29.1 °F 76% 29.91 in 10.0 mi East 4.6 mph - N/A   Clear
7:55 PM 35.4 °F - 29.1 °F 78% 29.93 in 10.0 mi Calm Calm - N/A   Clear
8:15 PM 33.4 °F 30.4 °F 28.8 °F 83% 29.92 in 10.0 mi ENE 3.5 mph - N/A   Clear
8:35 PM 32.2 °F - 28.2 °F 85% 29.93 in 10.0 mi Calm Calm - N/A   Clear
8:55 PM 32.0 °F 27.5 °F 28.4 °F 87% 29.92 in 10.0 mi East 4.6 mph - N/A   Clear
9:15 PM 33.4 °F - 28.9 °F 84% 29.93 in 10.0 mi Calm Calm - N/A   Clear
9:35 PM 31.6 °F 28.3 °F 27.7 °F 85% 29.92 in 10.0 mi East 3.5 mph - N/A   Clear
9:55 PM 31.6 °F 27.0 °F 28.2 °F 87% 29.91 in 10.0 mi East 4.6 mph - N/A   Clear
10:15 PM 32.0 °F 27.5 °F 28.6 °F 87% 29.91 in 10.0 mi ESE 4.6 mph - N/A   Clear
10:35 PM 34.7 °F 29.6 °F 30.0 °F 83% 29.91 in 10.0 mi ESE 5.8 mph - N/A   Clear
10:55 PM 34.5 °F 29.4 °F 30.2 °F 84% 29.90 in 10.0 mi ESE 5.8 mph - N/A   Clear
11:15 PM 34.3 °F 29.2 °F 30.2 °F 85% 29.89 in 10.0 mi ESE 5.8 mph - N/A   Clear
11:35 PM 34.7 °F 26.9 °F 30.6 °F 85% 29.89 in 10.0 mi SE 10.4 mph - N/A   Clear
11:55 PM 34.9 °F 27.7 °F 30.2 °F 83% 29.88 in 10.0 mi SE 9.2 mph - N/A   Clear